Date String (YYYY-MM-DD hh:mm:ss) UTC,Instrument flags,Ambient pressure (hPa),Sample flow (lpm),Bypass flow (lpm),Sample temperature (°C),Ambient temperature (°C),ASC tube jacket temperature (°C),LED temperature (°C),Box temperature (°C),Sample RH (%),Span deviation,Mass concentration (μg/m³),Mass concentration (μg/m³),Mass concentration (μg/m³)
DateTimeUTC,F1_M11,P_M11,Q1_M11,Q2_M11,T1_M11,T2_M11,T3_M11,T4_M11,T5_M11,U1_M11,ZSPAN_M11,X0_M11,X2_M11,X1_M11
2021-09-18 23:00:00,,0825.5,5.00,0.00,29.1,25.9,00.0,38.1,30.5,11.7,0000.6,0013.79,0004.93,0004.33
2021-09-18 23:01:00,,0825.5,5.01,0.00,29.0,25.8,00.0,38.1,30.4,11.7,0000.5,0013.92,0004.94,0004.34
2021-09-18 23:02:00,,0825.5,4.99,0.00,29.0,26.2,00.0,38.1,30.6,11.4,0000.2,0014.00,0004.98,0004.35
2021-09-18 23:03:00,,0825.4,5.00,0.00,28.9,26.7,00.0,38.0,30.6,11.4,0000.3,0013.81,0005.02,0004.37
2021-09-18 23:04:00,,0825.4,4.99,0.00,29.0,27.1,00.0,38.0,30.7,11.1,-000.0,0013.04,0005.06,0004.37
2021-09-18 23:05:00,,0825.5,5.02,0.00,29.0,27.5,00.0,38.0,30.9,11.2,-000.2,0012.39,0005.08,0004.37
2021-09-18 23:06:00,,0825.5,4.99,0.00,29.1,27.9,00.0,38.0,31.0,11.1,-000.6,0012.18,0005.10,0004.37
2021-09-18 23:07:00,,0825.5,5.01,0.00,29.2,28.2,00.0,38.1,31.1,11.2,-000.5,0012.06,0005.08,0004.39
2021-09-18 23:08:00,,0825.5,5.00,0.00,29.2,28.4,00.0,38.1,31.2,11.6,-001.0,0012.33,0005.07,0004.40
2021-09-18 23:09:00,,0825.4,4.99,0.00,29.3,28.5,00.0,38.1,31.2,11.0,-001.3,0012.66,0005.07,0004.40
2021-09-18 23:10:00,,0825.4,5.01,0.00,29.3,27.1,00.0,38.1,30.8,11.0,-001.1,0012.61,0005.14,0004.42
2021-09-18 23:11:00,,0825.4,5.01,0.00,29.1,25.8,00.0,38.1,30.4,11.2,0000.1,0011.98,0005.20,0004.42
2021-09-18 23:12:00,,0825.4,4.99,0.00,29.0,26.1,00.0,38.1,30.5,11.4,0000.3,0011.68,0005.19,0004.43
2021-09-18 23:13:00,,0825.4,5.00,0.00,29.0,26.5,00.0,38.1,30.6,11.1,0000.6,0011.59,0005.16,0004.42
2021-09-18 23:14:00,,0825.4,4.99,0.00,29.0,26.9,00.0,38.1,30.7,11.0,0000.6,0011.40,0005.15,0004.42
2021-09-18 23:15:00,,0825.4,5.01,0.00,29.0,27.4,00.0,38.1,30.8,10.8,0000.7,0011.46,0005.12,0004.42
2021-09-18 23:16:00,,0825.5,5.00,0.00,29.1,27.7,00.0,38.1,31.0,10.8,0000.5,0011.26,0005.10,0004.42
2021-09-18 23:17:00,,0825.5,4.99,0.00,29.2,28.1,00.0,38.1,31.1,11.2,0000.7,0011.09,0005.09,0004.43
2021-09-18 23:18:00,,0825.5,5.00,0.00,29.3,28.4,00.0,38.1,31.2,10.9,0000.5,0011.23,0005.11,0004.42
2021-09-18 23:19:00,,0825.5,4.99,0.00,29.3,28.1,00.0,38.2,31.1,11.0,0000.8,0012.27,0005.11,0004.40
2021-09-18 23:20:00,,0825.5,5.01,0.00,29.2,26.3,00.0,38.2,30.7,11.4,0001.3,0012.51,0005.13,0004.40
2021-09-18 23:21:00,,0825.5,4.99,0.00,29.1,25.8,00.0,38.1,30.5,11.0,0002.0,0011.97,0005.07,0004.40
2021-09-18 23:22:00,,0825.4,5.01,0.00,29.0,26.3,00.0,38.1,30.6,11.1,0001.6,0012.04,0004.99,0004.39
2021-09-18 23:23:00,,0825.5,5.00,0.00,29.0,26.7,00.0,38.1,30.7,10.7,0001.7,0012.17,0004.99,0004.38
2021-09-18 23:24:00,,0825.5,4.99,0.00,29.0,27.2,00.0,38.1,30.8,10.8,0001.9,0012.60,0005.00,0004.38
2021-09-18 23:25:00,,0825.4,5.02,0.00,29.1,27.5,00.0,38.1,30.9,10.7,0001.5,0012.77,0005.00,0004.39
2021-09-18 23:26:00,,0825.4,5.00,0.00,29.1,27.9,00.0,38.1,31.0,10.6,0001.0,0013.10,0005.01,0004.39
2021-09-18 23:27:00,,0825.4,5.00,0.00,29.2,28.2,00.0,38.1,31.1,10.9,0000.9,0012.96,0004.98,0004.39
2021-09-18 23:28:00,,0825.4,5.00,0.00,29.3,28.0,00.0,38.2,31.1,10.9,0001.0,0012.94,0004.98,0004.40
2021-09-18 23:29:00,,0825.4,4.99,0.00,29.2,26.3,00.0,38.2,30.7,10.7,0000.9,0012.74,0004.93,0004.39
2021-09-18 23:30:00,,0825.4,5.01,0.00,29.1,25.7,00.0,38.1,30.4,10.5,0000.8,0013.37,0004.89,0004.40
2021-09-18 23:31:00,,0825.4,5.00,0.00,29.0,26.1,00.0,38.1,30.6,10.5,0000.6,0012.29,0004.89,0004.40
2021-09-18 23:32:00,,0825.3,5.01,0.00,29.0,26.6,00.0,38.1,30.7,10.5,0000.0,0012.55,0004.88,0004.37
2021-09-18 23:33:00,,0825.3,5.00,0.00,29.0,27.0,00.0,38.1,30.8,10.5,-000.1,0012.23,0004.91,0004.36
2021-09-18 23:34:00,,0825.4,4.99,0.00,29.1,27.5,00.0,38.1,30.9,10.6,-000.1,0011.78,0004.91,0004.37
2021-09-18 23:35:00,,0825.4,5.00,0.00,29.1,27.8,00.0,38.1,31.0,10.7,-000.9,0011.47,0004.90,0004.36
2021-09-18 23:36:00,,0825.4,5.00,0.00,29.2,28.2,00.0,38.1,31.1,10.7,-000.4,0011.44,0004.89,0004.34
2021-09-18 23:37:00,,0825.4,4.99,0.00,29.3,28.4,00.0,38.2,31.2,11.0,0000.5,0010.92,0004.87,0004.33
2021-09-18 23:38:00,,0825.4,5.01,0.00,29.3,27.5,00.0,38.2,31.0,11.0,0001.5,0011.00,0004.89,0004.33
2021-09-18 23:39:00,,0825.3,5.00,0.00,29.1,25.9,00.0,38.1,30.5,11.1,0001.5,0011.13,0004.89,0004.33
2021-09-18 23:40:00,,0825.4,5.01,0.00,29.0,25.9,00.0,38.1,30.5,11.1,0001.0,0011.07,0004.90,0004.34
2021-09-18 23:41:00,,0825.4,5.00,0.00,29.0,26.3,00.0,38.1,30.6,11.2,0001.2,0009.94,0004.92,0004.33
2021-09-18 23:42:00,,0825.3,5.00,0.00,29.0,26.7,00.0,38.1,30.7,11.0,0001.8,0009.88,0004.91,0004.33
2021-09-18 23:43:00,,0825.3,4.98,0.00,29.0,27.2,00.0,38.1,30.8,10.8,0002.1,0009.58,0004.91,0004.33
2021-09-18 23:44:00,,0825.3,5.00,0.00,29.1,27.6,00.0,38.1,30.9,10.5,0002.0,0009.59,0004.88,0004.34
2021-09-18 23:45:00,,0825.4,5.01,0.00,29.1,27.9,00.0,38.1,31.0,10.4,0001.9,0009.66,0004.88,0004.33
2021-09-18 23:46:00,,0825.3,4.99,0.00,29.2,28.2,00.0,38.1,31.1,10.4,0002.0,0009.70,0004.88,0004.33
2021-09-18 23:47:00,,0825.3,5.01,0.00,29.3,28.3,00.0,38.1,31.1,10.4,0002.1,0009.87,0004.88,0004.34
2021-09-18 23:48:00,,0825.4,5.00,0.00,29.2,26.6,00.0,38.1,30.7,10.4,0001.3,0009.93,0004.86,0004.34
2021-09-18 23:49:00,,0825.3,5.00,0.00,29.0,25.5,00.0,38.1,30.4,10.5,0000.9,0009.83,0004.85,0004.34
2021-09-18 23:50:00,,0825.3,5.01,0.00,29.0,25.9,00.0,38.1,30.4,10.5,0001.1,0010.22,0004.83,0004.33
2021-09-18 23:51:00,,0825.4,5.00,0.00,28.9,26.3,00.0,38.1,30.5,10.6,0001.9,0010.69,0004.81,0004.33
2021-09-18 23:52:00,,0825.3,4.99,0.00,28.9,26.8,00.0,38.1,30.6,10.6,0001.6,0010.67,0004.81,0004.34
2021-09-18 23:53:00,,0825.3,5.01,0.00,29.0,27.3,00.0,38.1,30.8,10.5,0001.2,0010.41,0004.78,0004.35
2021-09-18 23:54:00,,0825.3,4.99,0.00,29.1,27.6,00.0,38.1,30.9,10.7,0001.2,0010.35,0004.78,0004.36
2021-09-18 23:55:00,,0825.3,5.00,0.00,29.1,27.9,00.0,38.1,31.0,10.9,0001.0,0011.61,0004.81,0004.38
2021-09-18 23:56:00,,0825.3,4.99,0.00,29.2,28.2,00.0,38.1,31.1,11.1,0001.2,0011.74,0004.83,0004.39
2021-09-18 23:57:00,,0825.3,5.01,0.00,29.3,28.3,00.0,38.1,31.2,11.3,0001.7,0012.94,0004.88,0004.39
2021-09-18 23:58:00,,0825.3,5.00,0.00,29.2,26.9,00.0,38.1,30.8,11.7,0002.0,0013.44,0004.94,0004.40
2021-09-18 23:59:00,,0825.3,4.99,0.00,29.0,25.6,00.0,38.1,30.4,11.8,0002.1,0013.39,0005.00,0004.42
